EW2309 Weather Reports


Display with metric or nautical units.
time (UTC)temp
F
wind
direction
speed
MPH
gust
MPH
rain 1hr
in
rain 24hr
in
rain mn
in
humidity
%
barometer
mb
20260902064517 73 78 0.0 0.0 0.00 0.00 0.00 89 1016.7
20260902063017 74 78 0.0 0.0 0.00 0.00 0.00 88 1016.8
20260902061601 74 77 0.0 0.0 0.00 0.00 0.00 87 1016.7
20260902060133 74 77 0.0 0.0 0.00 0.00 0.00 86 1016.8
20260902054544 74 77 0.0 0.0 0.00 0.00 0.00 85 1016.9
20260902053043 74 77 0.0 0.0 0.00 0.00 0.00 84 1017.0
20260902051523 75 77 0.0 0.0 0.00 0.00 0.00 84 1017.0
20260902050024 75 77 0.0 0.0 0.00 0.00 0.00 83 1016.8
20260902044508 75 77 0.0 0.0 0.00 0.00 0.00 81 1016.9
20260902043005 76 77 0.0 0.0 0.00 0.00 0.00 81 1016.9
20260902041548 76 77 0.0 0.0 0.00 0.00 0.00 80 1017.0
20260902040047 77 77 0.0 0.0 0.00 0.00 0.00 79 1017.0
20260902034529 77 77 0.0 0.0 0.00 0.00 0.00 78 1017.0
20260902033028 77 77 0.0 0.0 0.00 0.00 0.00 79 1017.0
20260902031517 77 77 0.0 0.0 0.00 0.00 0.00 78 1017.1
20260902030010 77 77 0.0 0.0 0.00 0.00 0.00 78 1017.0
20260902024602 78 77 0.0 0.0 0.00 0.00 0.00 77 1017.1
20260902023056 78 77 0.0 0.0 0.00 0.00 0.00 76 1017.0
20260902021545 78 77 0.0 0.0 0.00 0.00 0.00 76 1017.0
20260902020047 79 77 0.0 0.0 0.00 0.00 0.00 76 1016.9
20260902014548 79 77 0.0 0.0 0.00 0.00 0.00 75 1016.7
20260902013037 79 77 0.0 0.0 0.00 0.00 0.00 75 1016.5
20260902011537 80 77 0.0 0.0 0.00 0.00 0.00 75 1016.5
20260902010037 80 77 0.0 0.0 0.00 0.00 0.00 74 1016.5
20260902004537 80 77 0.0 0.0 0.00 0.00 0.00 72 1016.3
20260902003035 81 77 0.0 0.0 0.00 0.00 0.00 74 1016.3
20260902001520 82 77 0.0 0.0 0.00 0.00 0.00 73 1016.2
20260902000033 83 77 0.0 0.0 0.00 0.00 0.00 71 1016.2
20260901234611 84 77 0.0 0.0 0.00 0.00 0.00 70 1016.3
20260901233100 85 77 0.0 0.0 0.00 0.00 0.00 69 1016.4
20260901231543 86 77 0.0 0.0 0.00 0.00 0.00 67 1016.5
20260901230048 87 77 0.0 0.0 0.00 0.00 0.00 66 1016.4
20260901224522 87 77 0.0 1.0 0.00 0.00 0.00 65 1016.4
20260901223024 88 77 0.0 1.0 0.00 0.00 0.00 63 1016.2
20260901221516 89 77 0.0 1.0 0.00 0.00 0.00 61 1016.3
20260901220011 90 77 0.0 1.0 0.00 0.00 0.00 60 1016.2
20260901214545 90 43 0.0 2.0 0.00 0.00 0.00 58 1016.2
20260901213046 90 43 0.0 2.0 0.00 0.00 0.00 56 1016.4
20260901211536 91 43 0.0 0.0 0.00 0.00 0.00 60 1016.4
20260901210033 93 43 0.0 1.0 0.00 0.00 0.00 55 1016.4
20260901204535 93 72 0.0 1.0 0.00 0.00 0.00 54 1016.4
20260901203045 94 73 0.0 3.0 0.00 0.00 0.00 52 1016.6
20260901201536 92 74 0.0 2.0 0.00 0.00 0.00 56 1016.8
20260901200028 91 78 0.0 2.0 0.00 0.00 0.00 56 1016.9
20260901194522 92 80 0.0 3.0 0.00 0.00 0.00 55 1017.1
20260901193020 92 169 0.0 2.0 0.00 0.00 0.00 57 1017.2
20260901191617 91 191 0.0 2.0 0.00 0.00 0.00 57 1017.4
20260901190057 92 52 0.0 3.0 0.00 0.00 0.00 56 1017.5
20260901184603 90 261 0.0 3.0 0.00 0.00 0.00 55 1017.8
20260901183038 91 169 0.0 5.0 0.00 0.00 0.00 52 1017.9
20260901181539 92 253 0.0 4.0 0.00 0.00 0.00 52 1018.1
20260901180020 91 86 1.0 5.0 0.00 0.00 0.00 52 1018.2
20260901174519 91 74 1.0 4.0 0.00 0.00 0.00 56 1018.3
20260901173016 90 36 1.0 4.0 0.00 0.00 0.00 57 1018.6
20260901171512 88 11 1.0 3.0 0.00 0.00 0.00 58 1018.8
20260901170013 88 355 1.0 3.0 0.00 0.00 0.00 63 1018.9
20260901164507 87 51 0.0 4.0 0.00 0.00 0.00 61 1019.1
20260901163006 87 42 0.0 2.0 0.00 0.00 0.00 61 1019.2
20260901161506 87 53 0.0 4.0 0.00 0.00 0.00 67 1019.2
20260901160052 85 88 0.0 0.0 0.00 0.00 0.00 68 1019.4
20260901154538 83 51 0.0 1.0 0.00 0.00 0.00 73 1019.4
20260901153015 81 107 0.0 0.0 0.00 0.00 0.00 82 1019.5
20260901151513 80 107 0.0 2.0 0.00 0.00 0.00 82 1019.6
20260901150053 79 111 0.0 0.0 0.00 0.00 0.00 85 1019.6
20260901144548 77 171 0.0 0.0 0.00 0.00 0.00 88 1019.6
20260901143031 76 163 0.0 0.0 0.00 0.00 0.00 88 1019.6
20260901141526 75 163 0.0 0.0 0.00 0.00 0.00 89 1019.6
20260901140006 75 163 0.0 0.0 0.00 0.00 0.00 91 1019.6
20260901134503 74 163 0.0 0.0 0.00 0.00 0.00 93 1019.6
20260901133042 72 164 0.0 0.0 0.00 0.00 0.00 95 1019.4
20260901131539 72 164 0.0 0.0 0.00 0.00 0.00 96 1019.5
20260901130018 71 164 0.0 0.0 0.00 0.00 0.00 96 1019.4
20260901124522 70 164 0.0 0.0 0.00 0.00 0.00 96 1019.3
20260901123056 70 164 0.0 0.0 0.00 0.00 0.00 96 1019.3
20260901121558 70 164 0.0 0.0 0.00 0.00 0.00 95 1019.1
20260901120044 69 159 0.0 0.0 0.00 0.00 0.00 94 1018.9
20260901114539 69 159 0.0 0.0 0.00 0.00 0.00 94 1018.8
20260901113018 69 159 0.0 0.0 0.00 0.00 0.00 94 1018.7
20260901111512 69 159 0.0 0.0 0.00 0.00 0.00 93 1018.4
20260901110105 69 159 0.0 0.0 0.00 0.00 0.00 92 1018.3
20260901104555 69 159 0.0 0.0 0.00 0.00 0.00 92 1018.3
20260901103034 70 159 0.0 0.0 0.00 0.00 0.00 92 1018.1
20260901101544 70 159 0.0 0.0 0.00 0.00 0.00 91 1018.2
20260901100012 70 159 0.0 0.0 0.00 0.00 0.00 91 1017.9
20260901094511 70 159 0.0 0.0 0.00 0.00 0.00 91 1017.9
20260901093054 70 159 0.0 0.0 0.00 0.00 0.00 91 1017.9
20260901091553 70 159 0.0 0.0 0.00 0.00 0.00 91 1017.8
20260901090038 70 159 0.0 0.0 0.00 0.00 0.00 90 1017.7
20260901084543 70 159 0.0 0.0 0.00 0.00 0.00 90 1017.6
20260901083016 71 159 0.0 0.0 0.00 0.00 0.00 90 1017.5
20260901081515 71 159 0.0 0.0 0.00 0.00 0.00 89 1017.5
20260901080058 71 159 0.0 0.0 0.00 0.00 0.00 89 1017.5
20260901074559 71 159 0.0 0.0 0.00 0.00 0.00 88 1017.4
20260901073042 71 159 0.0 0.0 0.00 0.00 0.00 87 1017.4
20260901071539 72 159 0.0 0.0 0.00 0.00 0.00 87 1017.5
20260901070021 72 159 0.0 0.0 0.00 0.00 0.00 86 1017.6